Location: Ciserano
(45.5833°N, 9.6000°E)
Time: 04:23:29
(UTC+00:00)

FALCON 9 DEB - Pass Details

Date: 29 November 2020
Orbit: 424 x 438 km, 53.0° (Epoch: 24 January)

Event Time Altitude Azimuth Distance (km) Brightness Sun altitude
Exits shadow 05:59:49 - 309° (NW) 1,675 5.5 -7.0°
Reaches altitude 10° 06:00:08 10° 311° (NW) 1,556 5.3 -7.0°
Maximum altitude 06:03:24 36° 19° (NNE) 716 4.2 -6.4°
Drops below altitude 10° 06:06:38 10° 88° (E) 1,545 7.1 -5.9°
Sets 06:08:51 0° 98° (E) 2,409 8.6 -5.6°
